CW2597 Weather Reports


Display with metric or nautical units.
time (UTC)temp
F
wind
direction
speed
MPH
gust
MPH
rain 1hr
in
rain 24hr
in
rain mn
in
humidity
%
barometer
mb
20260905153510 67 269 4.0 13.0 0.00 0.02 0.02 62 1018.9
20260905153205 67 297 2.0 10.0 0.00 0.02 0.02 62 1019.7
20260905152510 67 248 4.0 11.0 0.00 0.02 0.02 63 1018.6
20260905152205 67 265 4.0 12.0 0.00 0.02 0.02 62 1019.6
20260905151705 67 257 6.0 15.0 0.00 0.02 0.02 62 1019.5
20260905151205 67 279 2.0 12.0 0.00 0.02 0.02 66 1019.5
20260905150705 66 251 9.0 17.0 0.00 0.02 0.02 65 1019.5
20260905150510 66 289 7.0 17.0 0.00 0.02 0.02 66 1018.6
20260905150205 66 260 5.0 12.0 0.00 0.02 0.02 67 1019.5
20260905145704 67 299 5.0 12.0 0.00 0.02 0.02 65 1019.5
20260905145510 67 255 4.0 13.0 0.00 0.02 0.02 65 1018.6
20260905145204 68 246 7.0 15.0 0.00 0.02 0.02 59 1019.4
20260905144705 68 274 6.0 13.0 0.00 0.02 0.02 57 1019.3
20260905144510 69 223 6.0 15.0 0.00 0.02 0.02 58 1018.3
20260905144205 69 230 6.0 15.0 0.00 0.02 0.02 58 1019.1
20260905143704 69 239 3.0 15.0 0.00 0.02 0.02 61 1019.0
20260905143510 68 203 6.0 15.0 0.00 0.02 0.02 61 1018.1
20260905143205 68 256 6.0 15.0 0.00 0.02 0.02 60 1019.0
20260905142705 68 256 6.0 15.0 0.00 0.02 0.02 59 1018.9
20260905142510 68 225 8.0 21.0 0.00 0.02 0.02 59 1018.0
20260905142205 69 233 9.0 18.0 0.00 0.02 0.02 58 1018.9
20260905141704 68 257 9.0 20.0 0.00 0.03 0.02 58 1018.8
20260905141510 68 237 8.0 20.0 0.00 0.02 0.02 58 1018.0
20260905141205 68 262 8.0 17.0 0.00 0.04 0.02 58 1018.8
20260905140705 70 264 6.0 10.0 0.00 0.05 0.02 58 1018.7
20260905140510 70 239 5.0 10.0 0.00 0.02 0.02 59 1017.7
20260905140205 70 232 5.0 14.0 0.00 0.06 0.02 59 1018.6
20260905135705 70 257 7.0 22.0 0.00 0.06 0.02 59 1018.5
20260905135510 70 212 6.0 16.0 0.00 0.02 0.02 61 1017.5
20260905135205 70 238 5.0 15.0 0.00 0.06 0.02 60 1018.5
20260905134704 69 254 6.0 16.0 0.00 0.06 0.02 61 1018.5
20260905134511 69 260 7.0 15.0 0.00 0.02 0.02 61 1017.6
20260905134204 68 261 6.0 17.0 0.00 0.07 0.02 61 1018.5
20260905133705 68 257 6.0 20.0 0.00 0.07 0.02 63 1018.5
20260905133510 68 248 9.0 20.0 0.00 0.02 0.02 62 1017.5
20260905133204 68 265 9.0 20.0 0.01 0.08 0.02 60 1018.5
20260905132704 68 258 9.0 21.0 0.01 0.08 0.02 58 1018.4
20260905132510 69 266 9.0 24.0 0.01 0.02 0.02 56 1017.4
20260905132204 69 262 7.0 21.0 0.01 0.08 0.02 57 1018.3
20260905131704 69 239 7.0 20.0 0.01 0.09 0.02 60 1018.2
20260905131510 69 261 6.0 15.0 0.01 0.02 0.02 59 1017.2
20260905131205 69 264 6.0 17.0 0.01 0.09 0.02 60 1018.1
20260905130705 68 238 6.0 14.0 0.01 0.11 0.02 65 1018.0
20260905130510 68 254 6.0 15.0 0.01 0.02 0.02 65 1017.1
20260905125704 66 249 5.0 14.0 0.01 0.15 0.02 73 1018.1
20260905125510 66 218 5.0 11.0 0.01 0.02 0.02 74 1017.1
20260905125205 65 253 6.0 12.0 0.01 0.17 0.02 75 1018.1
20260905124704 64 238 3.0 8.0 0.01 0.17 0.02 78 1018.1
20260905124510 64 248 4.0 12.0 0.01 0.02 0.02 77 1017.2
20260905123205 68 261 6.0 16.0 0.00 0.17 0.01 60 1017.8
20260905122704 68 280 7.0 17.0 0.00 0.17 0.01 61 1017.6
20260905122204 68 259 6.0 18.0 0.00 0.17 0.01 60 1017.6
20260905121704 68 262 5.0 12.0 0.00 0.17 0.01 64 1017.7
20260905121205 67 280 5.0 15.0 0.00 0.17 0.01 63 1017.5
20260905120704 67 254 4.0 15.0 0.00 0.17 0.01 63 1017.5
20260905120510 67 276 5.0 15.0 0.00 0.01 0.01 63 1016.5
20260905120205 67 265 6.0 13.0 0.00 0.17 0.01 63 1017.4
20260905115704 68 272 7.0 16.0 0.00 0.17 0.01 63 1017.3
20260905115510 68 253 5.0 14.0 0.00 0.01 0.01 63 1016.4
20260905115205 69 262 5.0 15.0 0.00 0.17 0.01 62 1017.2
20260905114704 69 253 3.0 16.0 0.00 0.17 0.01 65 1017.1
20260905114205 68 253 5.0 10.0 0.00 0.17 0.01 64 1017.1
20260905113704 68 250 3.0 8.0 0.00 0.17 0.01 64 1017.1
20260905113512 67 261 3.0 14.0 0.00 0.01 0.01 64 1016.2
20260905113204 67 244 4.0 14.0 0.00 0.17 0.01 64 1017.1
20260905112512 67 248 8.0 25.0 0.00 0.01 0.01 62 1016.2
20260905111512 68 262 7.0 21.0 0.00 0.01 0.01 59 1016.0
20260905111204 68 268 6.0 12.0 0.00 0.18 0.01 61 1016.8
20260905110704 68 233 6.0 18.0 0.00 0.19 0.01 61 1016.8
20260905110512 68 261 7.0 18.0 0.00 0.01 0.01 62 1015.9
20260905110208 68 251 5.0 14.0 0.00 0.19 0.01 66 1016.8
20260905105705 67 250 8.0 18.0 0.00 0.19 0.01 67 1016.8
20260905105512 67 262 5.0 16.0 0.00 0.01 0.01 69 1015.9
20260905105204 66 240 6.0 16.0 0.00 0.19 0.01 71 1016.8
20260905104704 65 253 5.0 20.0 0.00 0.19 0.01 72 1016.7
20260905104512 65 257 7.0 19.0 0.00 0.01 0.01 72 1015.8
20260905104204 65 240 7.0 15.0 0.00 0.19 0.01 72 1016.7
20260905103704 65 261 4.0 14.0 0.00 0.19 0.01 74 1016.7
20260905103512 66 230 5.0 15.0 0.00 0.01 0.01 73 1015.8
20260905103204 66 238 7.0 17.0 0.00 0.19 0.01 70 1016.7
20260905102512 68 251 6.0 15.0 0.00 0.01 0.01 68 1015.7
20260905102205 68 244 8.0 15.0 0.00 0.20 0.01 67 1016.6
20260905101704 68 271 3.0 12.0 0.00 0.20 0.01 69 1016.5
20260905101512 68 239 3.0 12.0 0.00 0.01 0.01 69 1015.5
20260905100205 67 264 6.0 21.0 0.00 0.20 0.01 69 1016.3
20260905095705 67 255 5.0 14.0 0.00 0.20 0.01 70 1016.3
20260905095512 67 297 7.0 13.0 0.00 0.01 0.01 71 1015.5
20260905095205 67 251 6.0 15.0 0.00 0.20 0.01 70 1016.2
20260905094704 66 238 6.0 17.0 0.00 0.20 0.01 72 1016.3
20260905094204 66 248 5.0 12.0 0.00 0.20 0.01 73 1016.2
20260905093704 66 221 8.0 17.0 0.00 0.20 0.01 73 1016.3
20260905093512 66 287 5.0 17.0 0.00 0.01 0.01 73 1015.3
20260905093204 66 255 5.0 16.0 0.00 0.20 0.01 73 1016.2
20260905092704 66 254 6.0 18.0 0.01 0.21 0.01 73 1016.2
20260905092512 66 247 5.0 18.0 0.01 0.01 0.01 73 1015.2
20260905092204 66 221 7.0 16.0 0.01 0.21 0.01 73 1016.1
20260905091512 66 283 6.0 18.0 0.01 0.01 0.01 73 1015.2
20260905090704 65 231 3.0 12.0 0.01 0.21 0.01 76 1016.0
20260905090512 65 260 4.0 14.0 0.01 0.01 0.01 76 1015.1
20260905090204 65 242 5.0 14.0 0.01 0.21 0.01 76 1016.0
20260905085704 65 230 6.0 15.0 0.01 0.21 0.01 77 1015.9
20260905085204 64 255 6.0 12.0 0.01 0.21 0.01 79 1015.9
20260905084704 64 253 5.0 14.0 0.01 0.21 0.01 80 1015.9
20260905084512 64 273 3.0 10.0 0.01 0.01 0.01 80 1014.9
20260905084204 64 237 5.0 12.0 0.01 0.21 0.01 80 1015.9
20260905083512 64 257 3.0 10.0 0.01 0.01 0.01 79 1014.9
20260905083204 64 222 3.0 7.0 0.01 0.21 0.01 78 1015.8
20260905082704 64 242 4.0 9.0 0.00 0.20 0.00 78 1015.8
20260905082512 64 232 4.0 10.0 0.00 0.00 0.00 78 1014.8
20260905082205 64 228 3.0 10.0 0.00 0.20 0.00 78 1015.6
20260905081512 64 271 2.0 8.0 0.00 0.00 0.00 78 1014.7
20260905080704 63 231 2.0 8.0 0.00 0.20 0.00 78 1015.6
20260905080512 64 258 4.0 11.0 0.00 0.00 0.00 78 1014.6
20260905080204 64 258 6.0 12.0 0.00 0.20 0.00 77 1015.4
20260905075704 64 255 7.0 14.0 0.00 0.20 0.00 76 1015.4
20260905075512 64 266 6.0 11.0 0.00 0.00 0.00 76 1014.4
20260905074704 64 234 4.0 13.0 0.00 0.20 0.00 77 1015.2
20260905074512 64 181 5.0 13.0 0.00 0.00 0.00 77 1014.4
20260905074204 64 239 5.0 12.0 0.00 0.20 0.00 77 1015.2
20260905073704 64 236 3.0 9.0 0.00 0.20 0.00 78 1015.2
20260905073512 64 310 5.0 14.0 0.00 0.00 0.00 77 1014.3
20260905072704 63 243 3.0 10.0 0.00 0.20 0.00 79 1015.2
20260905072205 63 226 3.0 10.0 0.00 0.20 0.00 79 1015.1
20260905071704 62 244 4.0 10.0 0.00 0.20 0.00 80 1015.0
20260905071512 62 303 3.0 12.0 0.00 0.00 0.00 80 1014.0
20260905071204 61 224 3.0 12.0 0.00 0.20 0.00 81 1014.9
20260905070704 61 202 2.0 7.0 0.00 0.20 0.00 81 1014.9
20260905070204 61 228 1.0 8.0 0.00 0.20 0.00 81 1014.9
20260905065512 61 209 3.0 11.0 0.00 0.00 0.00 82 1014.0
20260905064512 60 257 3.0 8.0 0.00 0.00 0.00 82 1013.9
20260905064204 60 224 2.0 8.0 0.00 0.20 0.00 82 1014.9
20260905063704 60 226 3.0 7.0 0.00 0.20 0.00 82 1014.9
20260905063204 60 237 3.0 10.0 0.00 0.20 0.00 82 1014.9
20260905062703 60 230 4.0 7.0 0.00 0.20 0.00 83 1014.8
20260905062511 60 241 2.0 6.0 0.00 0.00 0.00 84 1013.9
20260905062204 59 262 1.0 6.0 0.00 0.20 0.00 84 1014.8
20260905061512 59 206 3.0 9.0 0.00 0.00 0.00 84 1013.6
20260905061204 59 219 2.0 7.0 0.00 0.20 0.00 84 1014.7
20260905060512 59 230 2.0 6.0 0.00 0.00 0.00 84 1013.5
20260905060204 59 226 2.0 6.0 0.00 0.20 0.00 85 1014.7
20260905055704 59 246 2.0 6.0 0.00 0.20 0.00 85 1014.6
20260905055512 58 225 2.0 6.0 0.00 0.00 0.00 85 1013.5
20260905055204 58 208 2.0 5.0 0.00 0.20 0.00 85 1014.5
20260905054704 58 214 2.0 6.0 0.00 0.20 0.00 85 1014.5
20260905054512 58 202 2.0 6.0 0.00 0.00 0.00 85 1013.4
20260905054204 58 249 1.0 6.0 0.00 0.20 0.00 85 1014.5
20260905053704 58 224 2.0 7.0 0.00 0.20 0.00 85 1014.4
20260905053511 58 214 2.0 7.0 0.00 0.00 0.00 85 1013.3
20260905053203 58 228 2.0 6.0 0.00 0.20 0.00 85 1014.3
20260905052704 58 239 2.0 6.0 0.00 0.20 0.00 85 1014.3
20260905052511 58 227 2.0 6.0 0.00 0.00 0.00 85 1013.2
20260905052204 58 242 2.0 7.0 0.00 0.20 0.00 85 1014.3
20260905051704 58 219 1.0 5.0 0.00 0.20 0.00 85 1014.2
20260905051511 58 237 2.0 5.0 0.00 0.00 0.00 85 1013.2
20260905051205 58 213 2.0 5.0 0.00 0.20 0.00 85 1014.2
20260905050706 58 219 1.0 3.0 0.00 0.20 0.00 85 1014.1
20260905050511 58 241 1.0 4.0 0.00 0.00 0.00 86 1013.1
20260905050206 58 233 2.0 5.0 0.00 0.20 0.00 86 1014.2
20260905045706 57 215 1.0 5.0 0.00 0.20 0.00 86 1014.1
20260905045511 57 221 1.0 5.0 0.00 0.00 0.00 86 1013.0
20260905045205 57 195 2.0 3.0 0.00 0.20 0.00 86 1014.0
20260905044511 57 214 0.0 4.0 0.00 0.00 0.00 86 1012.9
20260905044205 57 220 1.0 5.0 0.00 0.20 0.00 86 1013.9
20260905043206 58 223 1.0 7.0 0.00 0.20 0.00 85 1013.9
20260905042705 58 199 2.0 7.0 0.00 0.20 0.00 85 1013.9
20260905042206 58 223 2.0 3.0 0.00 0.20 0.00 85 1013.9
20260905041512 58 235 1.0 5.0 0.00 0.00 0.00 86 1012.8
20260905041205 58 227 2.0 3.0 0.00 0.20 0.00 86 1013.8
20260905040705 58 229 2.0 6.0 0.00 0.20 0.00 86 1013.8
20260905040206 58 237 1.0 3.0 0.00 0.20 0.00 85 1013.8
20260905035705 58 232 2.0 7.0 0.00 0.20 0.00 85 1013.8
20260905035512 58 256 1.0 6.0 0.00 0.00 0.00 85 1012.8
20260905035205 58 229 2.0 3.0 0.00 0.20 0.00 85 1013.8
20260905034706 58 219 1.0 5.0 0.00 0.20 0.00 86 1013.9
20260905034512 58 222 2.0 6.0 0.00 0.00 0.00 86 1012.8
20260905034205 58 225 2.0 5.0 0.00 0.20 0.00 86 1013.8
20260905033706 58 252 1.0 5.0 0.00 0.20 0.00 86 1013.7
20260905033511 58 265 1.0 5.0 0.00 0.00 0.00 86 1012.7
20260905033205 58 253 1.0 3.0 0.00 0.20 0.00 86 1013.8
20260905032706 58 230 1.0 9.0 0.00 0.20 0.00 86 1013.8
20260905032512 58 214 2.0 9.0 0.00 0.00 0.00 86 1012.8
20260905032205 58 244 1.0 3.0 0.00 0.20 0.00 86 1013.8
20260905031512 58 210 2.0 5.0 0.00 0.00 0.00 85 1012.7
20260905031205 58 255 2.0 7.0 0.00 0.20 0.00 86 1013.8
20260905030706 58 253 1.0 6.0 0.00 0.20 0.00 85 1013.8
20260905030512 58 253 1.0 6.0 0.00 0.00 0.00 85 1012.8
20260905030206 58 239 1.0 5.0 0.00 0.20 0.00 85 1013.8
20260905025706 58 253 2.0 8.0 0.00 0.20 0.00 85 1013.7
20260905025512 58 217 2.0 8.0 0.00 0.00 0.00 85 1012.7
20260905025205 58 250 1.0 3.0 0.00 0.20 0.00 85 1013.7
20260905024705 58 208 1.0 3.0 0.00 0.20 0.00 85 1013.5
20260905024512 58 238 1.0 6.0 0.00 0.00 0.00 85 1012.5
20260905024205 58 247 2.0 6.0 0.00 0.20 0.00 85 1013.4
20260905023512 58 246 2.0 9.0 0.00 0.00 0.00 85 1012.4
20260905023205 58 233 2.0 9.0 0.00 0.20 0.00 85 1013.4
20260905022206 59 228 1.0 3.0 0.00 0.20 0.00 85 1013.3
20260905021706 59 241 3.0 8.0 0.00 0.20 0.00 85 1013.4
20260905021511 59 245 2.0 7.0 0.00 0.00 0.00 85 1012.3
20260905021206 59 224 3.0 7.0 0.00 0.20 0.00 85 1013.3
20260905020706 59 260 2.0 7.0 0.00 0.20 0.00 85 1013.3
20260905020511 59 231 1.0 2.0 0.00 0.00 0.00 85 1012.2
20260905020205 59 234 2.0 5.0 0.00 0.20 0.00 85 1013.2
20260905015705 59 222 2.0 8.0 0.00 0.20 0.00 85 1013.2
20260905015511 59 276 1.0 4.0 0.00 0.00 0.00 85 1012.1
20260905015205 59 227 1.0 3.0 0.00 0.20 0.00 85 1013.2
20260905014705 59 218 2.0 5.0 0.00 0.20 0.00 85 1013.1
20260905014206 59 236 1.0 7.0 0.00 0.20 0.00 85 1013.1
20260905013512 59 218 1.0 8.0 0.00 0.00 0.00 85 1012.1
20260905013205 59 214 1.0 3.0 0.00 0.20 0.00 85 1013.1
20260905012705 59 252 3.0 8.0 0.00 0.20 0.00 85 1013.1
20260905012512 59 301 2.0 7.0 0.00 0.00 0.00 85 1012.1
20260905011705 59 253 3.0 8.0 0.00 0.20 0.00 85 1013.1
20260905011206 60 231 3.0 8.0 0.00 0.20 0.00 85 1013.1
20260905010706 60 242 2.0 7.0 0.00 0.20 0.00 84 1013.1
20260905010511 60 228 2.0 7.0 0.00 0.00 0.00 84 1012.2
20260905010205 60 256 2.0 7.0 0.00 0.20 0.00 84 1013.1
20260905005705 60 213 2.0 5.0 0.00 0.20 0.00 84 1013.0
20260905005511 60 224 2.0 7.0 0.00 0.00 0.00 84 1012.0
20260905005205 60 238 1.0 9.0 0.00 0.20 0.00 84 1012.9
20260905004705 60 256 1.0 3.0 0.00 0.20 0.00 84 1012.9
20260905004511 60 266 1.0 6.0 0.00 0.00 0.00 84 1012.0
20260905004205 60 242 1.0 6.0 0.00 0.20 0.00 84 1012.9
20260905003705 60 231 2.0 5.0 0.00 0.20 0.00 84 1012.9
20260905003511 60 232 2.0 5.0 0.00 0.00 0.00 84 1011.9
20260905003205 60 245 2.0 7.0 0.00 0.20 0.00 84 1012.9
20260905002705 60 221 2.0 8.0 0.00 0.20 0.00 84 1012.8
20260905002511 60 259 1.0 8.0 0.00 0.00 0.00 84 1011.8
20260905002205 60 221 2.0 7.0 0.00 0.20 0.00 84 1012.8
20260905001511 60 233 2.0 7.0 0.00 0.00 0.00 84 1011.8
20260905001205 60 227 2.0 7.0 0.00 0.20 0.00 84 1012.8
20260905000705 60 236 1.0 6.0 0.00 0.20 0.00 84 1012.7
20260905000511 60 210 2.0 5.0 0.00 0.00 0.00 84 1011.8
20260905000205 60 232 3.0 6.0 0.00 0.20 0.00 84 1012.7
20260904235705 60 246 2.0 8.0 0.00 0.20 0.00 84 1012.7
20260904235511 60 251 3.0 8.0 0.00 0.00 0.00 84 1011.7
20260904235205 60 233 2.0 6.0 0.00 0.20 0.00 84 1012.7
20260904234705 60 224 2.0 5.0 0.00 0.20 0.00 84 1012.6
20260904234511 60 237 2.0 7.0 0.00 0.00 0.00 84 1011.6
20260904234205 60 223 2.0 5.0 0.00 0.20 0.00 84 1012.6
20260904233705 60 224 2.0 8.0 0.00 0.20 0.00 84 1012.6
20260904233511 60 239 2.0 8.0 0.00 0.00 0.00 84 1011.6
20260904233205 60 240 2.0 3.0 0.00 0.20 0.00 84 1012.5
20260904232705 60 249 2.0 5.0 0.00 0.20 0.00 83 1012.5
20260904232511 60 266 2.0 7.0 0.00 0.00 0.00 83 1011.6
20260904232205 60 218 2.0 7.0 0.00 0.20 0.00 83 1012.4
20260904231705 60 236 2.0 7.0 0.00 0.20 0.00 83 1012.3
20260904231511 60 236 2.0 5.0 0.00 0.00 0.00 83 1011.4
20260904231205 60 233 2.0 3.0 0.00 0.20 0.00 83 1012.4
20260904230705 60 250 2.0 8.0 0.00 0.20 0.00 82 1012.4
20260904230511 60 259 1.0 8.0 0.00 0.00 0.00 82 1011.4
20260904230205 60 198 2.0 3.0 0.00 0.20 0.00 82 1012.3
20260904225205 61 219 1.0 3.0 0.00 0.20 0.00 82 1012.3
20260904224706 61 241 2.0 3.0 0.00 0.20 0.00 81 1012.2
20260904224205 61 235 2.0 7.0 0.00 0.20 0.00 82 1012.2
20260904223705 61 226 1.0 6.0 0.00 0.20 0.00 81 1012.2
20260904223511 61 264 2.0 6.0 0.00 0.00 0.00 81 1011.3
20260904223206 61 248 2.0 7.0 0.00 0.20 0.00 81 1012.2
20260904222511 61 208 1.0 6.0 0.00 0.00 0.00 81 1011.2
20260904222205 61 261 1.0 7.0 0.00 0.20 0.00 80 1012.1
20260904221705 61 219 1.0 7.0 0.00 0.20 0.00 80 1012.0
20260904221511 61 278 2.0 7.0 0.00 0.00 0.00 80 1010.9
20260904221205 61 233 3.0 7.0 0.00 0.20 0.00 80 1011.9
20260904220705 62 241 3.0 9.0 0.00 0.20 0.00 80 1011.9
20260904220205 61 221 2.0 9.0 0.00 0.20 0.00 80 1011.9
20260904215705 61 251 3.0 8.0 0.00 0.20 0.20 80 1011.8
20260904215511 62 177 2.0 6.0 0.00 0.20 0.20 80 1010.8
20260904215205 62 214 2.0 6.0 0.00 0.20 0.20 80 1011.8
20260904214705 62 245 1.0 6.0 0.00 0.20 0.20 80 1011.9
20260904214511 62 237 2.0 7.0 0.00 0.20 0.20 80 1010.9
20260904214209 62 262 3.0 9.0 0.00 0.20 0.20 80 1011.8
20260904213705 62 247 3.0 7.0 0.00 0.20 0.20 80 1011.8
20260904213511 62 244 2.0 7.0 0.00 0.20 0.20 80 1010.9
20260904213205 62 254 1.0 7.0 0.00 0.20 0.20 80 1011.8
20260904212705 62 214 2.0 8.0 0.00 0.20 0.20 79 1011.7
20260904212205 62 212 2.0 8.0 0.00 0.20 0.20 79 1011.7
20260904211705 62 244 2.0 9.0 0.00 0.20 0.20 79 1011.7
20260904211511 62 285 2.0 9.0 0.00 0.20 0.20 79 1010.7
20260904211205 62 243 3.0 8.0 0.00 0.20 0.20 79 1011.7
20260904210705 62 214 3.0 10.0 0.00 0.20 0.20 79 1011.7
20260904210511 62 264 3.0 10.0 0.00 0.20 0.20 79 1010.7
20260904210205 62 230 1.0 6.0 0.00 0.20 0.20 79 1011.5
20260904205705 62 263 2.0 6.0 0.00 0.20 0.20 78 1011.6
20260904205511 62 269 2.0 6.0 0.00 0.20 0.20 78 1010.6
20260904205206 63 238 3.0 10.0 0.00 0.20 0.20 78 1011.5
20260904204705 63 236 2.0 9.0 0.00 0.20 0.20 78 1011.5
20260904204511 63 250 2.0 7.0 0.00 0.20 0.20 78 1010.5
20260904203705 63 252 3.0 10.0 0.00 0.20 0.20 77 1011.4
20260904203511 63 254 3.0 8.0 0.00 0.20 0.20 77 1010.4
20260904202705 63 262 5.0 13.0 0.00 0.20 0.20 77 1011.3
20260904202511 63 245 4.0 11.0 0.00 0.20 0.20 77 1010.3
20260904201511 63 243 4.0 11.0 0.00 0.20 0.20 77 1010.3
20260904201205 63 263 3.0 10.0 0.00 0.20 0.20 77 1011.1
20260904200705 63 247 3.0 9.0 0.00 0.20 0.20 76 1011.1
20260904200511 63 204 3.0 12.0 0.00 0.20 0.20 76 1010.2
20260904195705 64 252 3.0 12.0 0.00 0.20 0.20 76 1010.9
20260904195511 64 238 4.0 11.0 0.00 0.20 0.20 76 1010.0
20260904195205 64 262 4.0 10.0 0.00 0.20 0.20 75 1011.0
20260904194705 64 264 5.0 16.0 0.00 0.20 0.20 75 1011.0
20260904194511 64 275 6.0 16.0 0.00 0.20 0.20 75 1010.0
20260904194205 64 253 6.0 13.0 0.00 0.20 0.20 75 1010.9
20260904193511 64 248 3.0 11.0 0.00 0.20 0.20 76 1009.9
20260904193205 64 240 3.0 23.0 0.00 0.20 0.20 76 1010.8
20260904192705 64 261 4.0 12.0 0.00 0.20 0.20 76 1010.7
20260904192511 64 219 4.0 12.0 0.00 0.20 0.20 76 1009.8
20260904192205 64 270 6.0 15.0 0.00 0.20 0.20 76 1010.6
20260904191705 64 231 6.0 14.0 0.00 0.20 0.20 76 1010.6
20260904190705 64 235 4.0 12.0 0.00 0.20 0.20 77 1010.3
20260904190511 64 219 3.0 9.0 0.00 0.20 0.20 77 1009.5
20260904190204 64 228 3.0 9.0 0.00 0.20 0.20 77 1010.3
20260904185705 64 262 5.0 10.0 0.00 0.20 0.20 78 1010.2
20260904185510 64 254 5.0 10.0 0.00 0.20 0.20 77 1009.4
20260904185205 64 236 5.0 14.0 0.00 0.20 0.20 78 1010.2
20260904184705 64 249 3.0 13.0 0.00 0.20 0.20 78 1010.1
20260904184205 64 242 2.0 10.0 0.00 0.20 0.20 79 1009.9
20260904183705 64 246 2.0 10.0 0.00 0.20 0.20 78 1009.8
20260904183510 64 242 4.0 9.0 0.00 0.20 0.20 78 1008.9
20260904183205 64 227 2.0 10.0 0.00 0.20 0.20 79 1009.8
20260904182511 64 254 3.0 11.0 0.00 0.20 0.20 79 1008.7
20260904182205 65 220 5.0 12.0 0.00 0.20 0.20 79 1009.5
20260904181511 65 260 3.0 10.0 0.00 0.20 0.20 79 1008.5
20260904181205 65 225 3.0 13.0 0.00 0.20 0.20 79 1009.4
20260904180705 65 267 3.0 10.0 0.00 0.20 0.20 80 1009.5
20260904180510 65 269 3.0 10.0 0.00 0.20 0.20 80 1008.6
20260904180205 65 262 3.0 16.0 0.00 0.20 0.20 80 1009.5
20260904175705 65 260 5.0 12.0 0.00 0.20 0.20 80 1009.3
20260904175511 65 282 4.0 11.0 0.00 0.20 0.20 80 1008.4
20260904175205 65 261 5.0 12.0 0.00 0.20 0.20 81 1009.3
20260904174705 65 258 4.0 10.0 0.00 0.20 0.20 81 1009.3
20260904174510 65 268 5.0 17.0 0.00 0.20 0.20 81 1008.4
20260904174205 65 259 6.0 17.0 0.00 0.20 0.20 81 1009.4
20260904173704 65 255 5.0 13.0 0.00 0.20 0.20 81 1009.3
20260904173511 65 240 5.0 13.0 0.00 0.20 0.20 82 1008.5
20260904173205 65 241 7.0 13.0 0.00 0.20 0.20 82 1009.2
20260904172510 65 246 5.0 12.0 0.00 0.20 0.20 83 1008.2
20260904172205 65 241 5.0 12.0 0.00 0.20 0.20 83 1009.0
20260904171510 65 271 3.0 9.0 0.00 0.20 0.20 83 1008.0
20260904171205 65 223 5.0 12.0 0.00 0.20 0.20 83 1008.9
20260904170705 65 216 5.0 13.0 0.00 0.20 0.20 83 1008.8
20260904170205 65 238 3.0 14.0 0.00 0.20 0.20 82 1008.7
20260904165705 65 248 5.0 13.0 0.00 0.20 0.20 82 1008.5
20260904165511 65 283 4.0 11.0 0.00 0.20 0.20 83 1007.6
20260904165204 65 273 4.0 13.0 0.00 0.20 0.20 83 1008.6
20260904164705 65 274 6.0 12.0 0.00 0.20 0.20 83 1008.4
20260904164511 65 265 3.0 14.0 0.00 0.20 0.20 84 1007.5
20260904164204 66 241 5.0 14.0 0.00 0.20 0.20 83 1008.3
20260904163705 66 252 2.0 14.0 0.00 0.20 0.20 84 1008.2
20260904163510 66 279 5.0 17.0 0.00 0.20 0.20 84 1007.3
20260904163205 66 267 3.0 12.0 0.00 0.20 0.20 84 1008.1
20260904162704 66 221 6.0 13.0 0.00 0.20 0.20 84 1008.2
20260904162510 66 243 5.0 13.0 0.00 0.20 0.20 84 1007.3
20260904162205 66 261 6.0 20.0 0.00 0.20 0.20 84 1008.3
20260904161705 66 243 5.0 12.0 0.00 0.20 0.20 85 1008.2
20260904161510 66 206 4.0 10.0 0.00 0.20 0.20 85 1007.4
20260904161204 66 241 5.0 10.0 0.00 0.20 0.20 84 1008.3
20260904160705 66 252 6.0 14.0 0.00 0.20 0.20 84 1008.2
20260904160510 66 262 5.0 14.0 0.00 0.20 0.20 85 1007.3
20260904155705 66 253 6.0 12.0 0.00 0.20 0.20 85 1007.9
20260904155515 66 190 5.0 12.0 0.00 0.20 0.20 85 1007.0
20260904155204 66 248 6.0 12.0 0.00 0.20 0.20 85 1008.1
20260904154705 65 268 8.0 20.0 0.00 0.20 0.20 85 1008.2
20260904154510 65 251 4.0 10.0 0.00 0.20 0.20 86 1007.1
20260904154205 65 285 4.0 15.0 0.00 0.20 0.20 86 1008.0